NEXUS (FO-99)

Last updated on Fri Nov 10 2023 00:03:00 GMT+0000 (Coordinated Universal Time)

1 43937U 19003F 23312.62282779 .04978741 23000-5 15422-2 0 9999 2 43937 97.0369 341.1318 0003402 211.9629 148.1458 16.26698268268687

Satellite not in orbit

NEXUS (FO-99)